sat.trackr.live / text

‹ back to catalog

QPS-SAR-9 (SUSANOO-I)

NORAD 63205 · 2025-050A

PAYLOAD ACTIVE UNKNOWN

§ Identity

Operator
Country
JPN
Launch date
2025-03-15
Launch site
RLLB
Launch vehicle
Mass (kg)
RCS (m²)

External: N2YO · Heavens-Above · Gunter

§ Orbital elements

Epoch: 2026-09-22T18:28:01.884864Z

Period
95.75 min
Inclination
42.0194°
Eccentricity
0.0003963
Mean motion
15.03909619 rev/d
Perigee alt
552.1 km
Apogee alt
557.6 km
Semi-major
6,933.0 km
B*
2.4624e-4
RAAN
282.6753°
Arg perigee
64.7521°
Mean anomaly
295.3717°
Rev number
8,365

§ Raw data

QPS-SAR-9 (SUSANOO-I)1 63205U 25050A   26265.76946626  .00003263  00000+0  24624-3 0  99992 63205  42.0194 282.6753 0003963  64.7521 295.3717 15.03909619 83656

JSON: /api/v1/satellites/63205 · /tle

For live sub-satellite position, see the globe view (requires WebGL).

§ Visibility from observer

Set your observer location to see the next 7 days of passes ≥ 10°. The values pass through the URL so the page stays shareable.

No JS? Fill the form by hand. The geolocation button needs JavaScript.